Overview Statistics Trail Chart Weather Telemetry Raw packets
 

This is the latest recevied weather packets stored in our database for station/object KO4ZGL-13. If no packets are shown the sender has not sent any weather packets the latest 10 day(s).

<< 1 2 3 4 5 6 7 >>
Time Temp. Humidity Pressure Rain* Wind** Luminosity Snow
1788635087 36.67° C 63% 1011.2 hPa 0 mm - 592 W/m² -
1788634786 36.11° C 62% 1011.2 hPa 0 mm - 610 W/m² -
1788634481 35.56° C 64% 1011.4 hPa 0 mm - 621 W/m² -
1788634180 36.11° C 64% 1011.6 hPa 0 mm - 642 W/m² -
1788633875 35° C 67% 1011.7 hPa 0 mm - 640 W/m² -
1788633573 35.56° C 65% 1011.6 hPa 0 mm - 655 W/m² -
1788633268 36.11° C 63% 1011.8 hPa 0 mm - 679 W/m² -
1788632963 36.11° C 64% 1011.9 hPa 0 mm - 676 W/m² -
1788632662 36.11° C 64% 1012 hPa 0 mm - 672 W/m² -
1788632358 36.11° C 66% 1012 hPa 0 mm - 669 W/m² -
1788632058 36.11° C 66% 1012.2 hPa 0 mm - 654 W/m² -
1788631757 36.11° C 65% 1012.2 hPa 0 mm - 657 W/m² -
1788631452 36.11° C 69% 1012.1 hPa 0 mm - 654 W/m² -
1788631147 35.56° C 65% 1012.4 hPa 0 mm - 609 W/m² -
1788630846 35° C 67% 1012.3 hPa 0 mm - 625 W/m² -
1788630542 35° C 69% 1012.5 hPa 0 mm - 623 W/m² -
1788630238 35.56° C 67% 1012.6 hPa 0 mm - 639 W/m² -
1788629933 35° C 69% 1012.7 hPa 0 mm - 639 W/m² -
1788629629 33.89° C 70% 1012.8 hPa 0 mm - 646 W/m² -
1788629324 34.44° C 69% 1012.7 hPa 0 mm - 643 W/m² -
1788629022 35° C 69% 1012.6 hPa 0 mm - 648 W/m² -
1788628718 34.44° C 71% 1012.5 hPa 0 mm - 650 W/m² -
1788628415 34.44° C 70% 1012.7 hPa 0 mm - 646 W/m² -
1788628111 35° C 70% 1012.8 hPa 0 mm - 383 W/m² -
1788627807 34.44° C 70% 1013.1 hPa 0 mm - 677 W/m² -

* Rain latest hour (hover to see other rain measurements)
** Current wind speed in m/s (hover to see current wind gust speed)